Weather Roundup
Issued by NWS Springfield, MO

Home | Current Version | Previous Version | Text Only | Print | Product List | Glossary On
Versions: 1 2 3 4 5 6 7 8 9 10 11 12 13 14 15 16 17 18 19 20 21 22 23 24 25 26 27 28 29 30 31 32 33 34 35 36 37 38 39 40 41 42 43 44 45 46 47 48 49 50
000
NZUS99 KSGF 012010
HRRSGF

HOURLY WEATHER
NATIONAL WEATHER SERVICE SPRINGFIELD MO
300 PM CDT TUE SEP 01 2015

......SGF CWA......

CITY           SKY/WX    TMP DP  RH WIND       PRES   REMARKS
SPRINGFIELD    MOSUNNY   87  66  49 SW12      30.08F
JOPLIN         MOSUNNY   87  66  49 S10       30.05F
WEST PLAINS    MOSUNNY   86  65  49 S10       30.12F
ROLLA          PTSUNNY   89  66  46 SE10G18   30.06F HX  91
OSAGE BEACH    PTSUNNY   90  66  45 SE7       30.06F HX  92
BRANSON        MOSUNNY   88  64  45 S7        30.09F

......SURROUNDING SGF CWA......

CITY           SKY/WX    TMP DP  RH WIND       PRES   REMARKS
CHANUTE        SUNNY     87  67  51 S16       30.03F HX  90
PARSONS        SUNNY     87  70  56 S8        30.04F HX  92
COFFEYVILLE    SUNNY     87  70  56 S10       30.02F HX  92
EMPORIA        SUNNY     89  64  43 S16G26    29.99F HX  90
GROVE OK       MOSUNNY   90  63  40 S12       30.06S HX  90
ROGERS AR      MOSUNNY   87  64  46 SE14G20   30.08F
SILOAM SPRINGS MOSUNNY   88  64  45 S14       30.06F
HARRISON AR    MOSUNNY   87  64  46 S9        30.09
NEAR YELLVILLE PTSUNNY   91  66  43 SE7       30.05F HX  94

......KANSAS AND MISSOURI......

CITY           SKY/WX    TMP DP  RH WIND       PRES   REMARKS
KANSAS CTY INT PTSUNNY   90  67  46 S12       30.01S HX  93
DOWNTOWN KC    SUNNY     91  66  43 S15       30.00F HX  93
COLUMBIA       SUNNY     89  71  55 S9        30.05F HX  95
SEDALIA        SUNNY     92  67  43 S9        30.06S HX  95
ST JOSEPH      MOSUNNY   89  70  53 S13       29.98F HX  94
ST LOUIS       MOSUNNY   92  68  45 S9        30.06F HX  96
SPIRIT OF STL  MOSUNNY   91  70  49 SW7       30.04F HX  96
KIRKSVILLE     SUNNY     90  68  48 SW8       30.04S HX  94
WICHITA        MOSUNNY   94  60  32 S15G25    29.96F HX  94
TOPEKA         SUNNY     91  67  44 SE15G22   29.98S HX  94
OLATHE         SUNNY     86  69  56 SW13      30.02F HX  90

......TENNESSEE......

CITY           SKY/WX    TMP DP  RH WIND       PRES   REMARKS
MEMPHIS        PTSUNNY   92  63  38 VRB7      30.07F HX  93
NASHVILLE      CLOUDY    89  64  43 SE5       30.10F HX  90

......ARKANSAS.......

CITY           SKY/WX    TMP DP  RH WIND       PRES   REMARKS
FAYETTEVILLE   SUNNY     86  67  52 SE14      30.08F
FT SMITH       MOSUNNY   91  62  37 VRB5      30.03F HX  91
LITTLE ROCK    CLOUDY    91  64  40 VRB5      30.05F HX  92

......OKLAHOMA.......

CITY           SKY/WX    TMP DP  RH WIND       PRES   REMARKS
TULSA          MOSUNNY   91  69  48 S12       29.99F HX  96
PONCA CITY     SUNNY     92  66  42 VRB7      29.97F HX  94
MCALESTER      SUNNY     91  66  43 VRB6      30.02F HX  93
OKLAHOMA CITY  MOSUNNY   91  66  43 S15       30.00F HX  93

......IOWA............

CITY           SKY/WX    TMP DP  RH WIND       PRES   REMARKS
DES MOINES     CLOUDY    90  71  53 S13       29.96S HX  96
QUAD CITIES    SUNNY     91  71  51 SW9       29.98F HX  97

......ILLINOIS........

CITY           SKY/WX    TMP DP  RH WIND       PRES   REMARKS
QUINCY         MOSUNNY   89  67  47 SE6       30.03S HX  92
CHICAGO        PTSUNNY   88  72  58 SW7G18    30.00F HX  94



USA.gov is the U.S. government's official web portal to all federal, state and local government web resources and services.